Location: Unspecified
(34.4500°N, 0.0000°E)
Time: 08:42:50
(UTC+00:00)

PRISM - Visible Passes

Search period start: 09 May 2021 00:00
Search period end: 19 May 2021 00:00
Orbit: 563 x 586 km, 98.2° (Epoch: 08 May)

Date Brightness Start Highest point End Pass type
(mag) Time Alt. Az. Time Alt. Az. Time Alt. Az.
09 May ? 03:12:20 10° N 03:16:25 82° WNW 03:17:33 46° SSW visible
10 May ? 03:15:30 10° N 03:19:34 75° WNW 03:20:49 43° SSW visible
11 May ? 03:18:39 10° N 03:22:42 69° WNW 03:24:05 39° SW visible
12 May ? 03:21:48 10° N 03:25:51 63° WNW 03:27:21 35° SW visible
13 May ? 03:24:57 10° N 03:28:58 57° WNW 03:30:37 32° SW visible
14 May ? 03:28:07 10° N 03:32:06 52° WNW 03:33:52 29° SW visible
15 May ? 01:59:16 10° E 01:59:52 10° E 02:00:29 10° ESE visible
15 May ? 03:31:17 10° N 03:35:14 48° WNW 03:37:07 27° SW visible
16 May ? 02:01:43 10° ENE 02:03:02 11° E 02:04:08 10° ESE visible
16 May ? 03:34:28 10° N 03:38:21 44° WNW 03:40:21 25° SW visible
17 May ? 02:04:27 10° ENE 02:06:11 12° E 02:07:23 11° ESE visible
17 May ? 03:37:37 10° N 03:41:28 40° WNW 03:43:36 22° SW visible
18 May ? 02:07:17 10° ENE 02:09:21 13° E 02:10:37 12° ESE visible
18 May ? 03:40:48 10° N 03:44:35 37° WNW 03:46:50 21° SW visible
